SPACEBEE-10 (46305 NORAD) Tracking and Keplerian Element Data

This shows tracking and keplerian element data for the satellite.

Feedback or suggestion? Click here.




ElementValue
Catalog46305
NameSPACEBEE-10
Epoch Orbit1376
Epoch Day338.94098734
Epoch Year2020
RAAN50.4304
Inclination97.5111
Eccentricity0.0001159
Argument of Perigee76.1385
Mean Anonmoly283.9974
Mean Motion15.11146703
Decay Rate5.522E-05
L11 46305U 20061AK 20338.94098734 .00005522 00000-0 33307-3 0 9990
L22 46305 97.5111 50.4304 0001159 76.1385 283.9974 15.11146703 13764

Live tracking and technical data element details for SPACEBEE-10 (NORAD 46305). SPACEBEE-10 can be tracked NOW for your location showing map with azimuth and elevation plus other details from your city location.

Track the satellite on the map from your city or location and see movement details for azimuth, elevation, latitude, longitude, range, height, and movement on the map or in text.







IsCatalogInMostPopularTable: catalog: 46305, numindb: 19
Update: records affected: 1



GetName: 46305 SPACEBEE-10

Hit Count: updated at: Sun, 06 Dec 2020 01:38:09 GMT